CW2939 Weather Reports


time (UTC)temp
C
wind
direction
speed
KPH
gust
KPH
rain 1hr
cm
rain 24hr
cm
rain mn
cm
humidity
%
barometer
mb
20260504033404 15 278 4.8 9.7 0.00 0.00 0.00 81 1012.7
20260504031405 15 267 0.0 3.2 0.00 0.00 0.00 80 1012.8
20260504030905 15 257 3.2 4.8 0.00 0.00 0.00 80 1012.8
20260504030405 15 253 4.8 9.7 0.00 0.00 0.00 80 1012.9
20260504024404 15 299 4.8 8.0 0.00 0.00 0.00 80 1012.9
20260504021404 15 313 3.2 3.2 0.00 0.00 0.00 79 1012.9
20260504020404 15 128 0.0 3.2 0.00 0.00 0.00 78 1012.9
20260504014404 16 146 0.0 3.2 0.00 0.00 0.00 79 1013.0
20260504013405 16 249 1.6 4.8 0.00 0.00 0.00 78 1013.0
20260504011404 16 301 1.6 3.2 0.00 0.00 0.00 75 1013.2
20260504010404 16 317 3.2 4.8 0.00 0.00 0.00 76 1013.3
20260504004904 16 339 0.0 3.2 0.00 0.00 0.00 79 1013.4
20260504004405 16 24 0.0 1.6 0.00 0.00 0.00 80 1013.4
20260504003404 16 24 1.6 4.8 0.00 0.00 0.00 78 1013.4
20260503234905 16 266 4.8 4.8 0.00 0.00 0.00 84 1013.6
20260503234404 16 262 3.2 4.8 0.00 0.00 0.00 85 1013.7
20260503233404 16 247 3.2 4.8 0.00 0.00 0.00 85 1013.8
20260503231905 16 293 0.0 3.2 0.00 0.00 0.00 85 1014.0
20260503230904 16 52 0.0 1.6 0.00 0.00 0.00 86 1014.0
20260503224404 16 131 0.0 0.0 0.00 0.00 0.00 85 1014.0
20260503223904 16 145 0.0 3.2 0.00 0.00 0.00 85 1014.0
20260503221404 16 102 0.0 1.6 0.00 0.00 0.00 83 1013.9
20260503220904 16 102 1.6 3.2 0.00 0.00 0.00 82 1014.0
20260503220404 17 206 1.6 3.2 0.00 0.00 0.00 81 1014.0
20260503214904 17 213 1.6 4.8 0.00 0.00 0.00 81 1014.1
20260503214404 17 232 3.2 4.8 0.00 0.00 0.00 81 1014.0
20260503213905 17 105 3.2 3.2 0.00 0.00 0.00 82 1014.0
20260503213404 17 105 3.2 4.8 0.00 0.00 0.00 82 1013.9
20260503211404 17 114 4.8 4.8 0.00 0.00 0.00 80 1013.9
20260503210905 17 101 0.0 4.8 0.00 0.00 0.00 79 1013.8
20260503204904 17 65 0.0 0.0 0.00 0.00 0.00 80 1013.7
20260503190904 19 216 3.2 4.8 0.00 0.00 0.00 73 1012.8
20260503190404 19 221 4.8 4.8 0.00 0.00 0.00 73 1012.7
20260503181904 19 111 9.7 11.3 0.00 0.00 0.00 73 1012.5
20260503180404 20 101 6.4 19.3 0.00 0.00 0.00 72 1012.7
20260503174904 20 92 14.5 16.1 0.00 0.00 0.00 70 1012.8
20260503173904 20 60 9.7 14.5 0.00 0.00 0.00 70 1012.8
20260503171404 20 107 9.7 14.5 0.00 0.00 0.00 68 1012.9
20260503170404 20 101 8.0 14.5 0.00 0.00 0.00 70 1013.1
20260503150904 20 18 3.2 19.3 0.00 0.00 0.00 71 1013.4
20260503150404 20 140 9.7 29.0 0.00 0.00 0.00 70 1013.5
20260503131404 20 128 14.5 32.2 0.00 0.00 0.00 72 1014.6
20260503130404 20 109 19.3 37.0 0.00 0.00 0.00 73 1014.7
20260503090404 18 182 3.2 11.3 0.00 0.00 0.00 83 1016.0
20260503071904 17 125 0.0 1.6 0.00 0.00 0.00 87 1015.6
20260503071404 16 125 1.6 4.8 0.00 0.00 0.00 87 1015.5
20260503054404 16 276 4.8 9.7 0.00 0.00 0.00 88 1014.8
20260503053904 16 259 4.8 11.3 0.00 0.00 0.00 88 1014.8
20260503051404 16 242 3.2 4.8 0.00 0.00 0.00 87 1014.7
20260503050404 16 249 0.0 4.8 0.00 0.00 0.00 87 1014.4
20260503043904 16 22 0.0 0.0 0.00 0.00 0.00 87 1014.8
20260503043403 16 81 0.0 0.0 0.00 0.00 0.00 87 1014.8
20260503041904 16 81 0.0 0.0 0.00 0.00 0.00 87 1015.0
20260503041404 16 81 0.0 0.0 0.00 0.00 0.00 87 1015.1
20260503040404 16 90 0.0 0.0 0.00 0.00 0.00 87 1015.1